| time (UTC) | temp C | wind direction | speed KPH | gust KPH | rain 1hr cm | rain 24hr cm | rain mn cm | humidity % | barometer mb |
| 20260507071557 | 0 | 122 | 6.4 | 17.7 | 0.00 | 2.01 | 0.00 | 99 | 1002.8 |
| 20260507070107 | 0 | 98 | 9.7 | 19.3 | 0.00 | 2.01 | 0.00 | 100 | 1002.2 |
| 20260507064600 | 0 | 65 | 8.0 | 22.5 | 0.00 | 2.03 | 0.00 | 100 | 1002.5 |
| 20260507063058 | 0 | 84 | 9.7 | 19.3 | 0.00 | 2.03 | 0.00 | 100 | 1001.8 |
| 20260507061559 | 0 | 109 | 9.7 | 24.1 | 0.00 | 2.03 | 0.00 | 100 | 1002.4 |
| 20260507060105 | 0 | 317 | 9.7 | 25.7 | 0.00 | 2.03 | 0.00 | 100 | 1002.7 |
| 20260507054559 | 0 | 142 | 11.3 | 22.5 | 0.00 | 2.11 | 0.00 | 100 | 1002.5 |
| 20260507053055 | 0 | 164 | 9.7 | 25.7 | 0.00 | 2.11 | 0.00 | 100 | 1002.6 |
| 20260507051557 | 1 | 17 | 8.0 | 16.1 | 0.00 | 2.11 | 0.00 | 100 | 1002.8 |
| 20260507050057 | 1 | 321 | 6.4 | 17.7 | 0.00 | 2.11 | 0.00 | 100 | 1002.7 |
| 20260507044601 | 1 | 252 | 8.0 | 17.7 | 0.00 | 2.11 | 0.00 | 100 | 1002.8 |
| 20260507043059 | 1 | 132 | 4.8 | 11.3 | 0.05 | 2.11 | 0.00 | 100 | 1003.1 |
| 20260507041555 | 1 | 79 | 6.4 | 19.3 | 0.10 | 2.11 | 0.00 | 100 | 1003.5 |
| 20260507040103 | 1 | 112 | 12.9 | 29.0 | 0.10 | 2.11 | 0.00 | 100 | 1003.9 |
| 20260507034559 | 2 | 67 | 9.7 | 24.1 | 0.18 | 2.11 | 2.11 | 100 | 1003.8 |
| 20260507033055 | 2 | 114 | 9.7 | 29.0 | 0.18 | 2.06 | 2.06 | 100 | 1004.2 |
| 20260507031553 | 2 | 82 | 9.7 | 24.1 | 0.18 | 2.01 | 2.01 | 99 | 1004.2 |
| 20260507030055 | 2 | 228 | 8.0 | 22.5 | 0.28 | 2.01 | 2.01 | 99 | 1004.1 |
| 20260507024600 | 2 | 288 | 14.5 | 29.0 | 0.30 | 1.93 | 1.93 | 100 | 1004.2 |
| 20260507023055 | 3 | 296 | 6.4 | 14.5 | 0.30 | 1.88 | 1.88 | 99 | 1003.9 |
| 20260507021558 | 3 | 125 | 1.6 | 8.0 | 0.25 | 1.83 | 1.83 | 100 | 1004.1 |
| 20260507020056 | 5 | 263 | 6.4 | 14.5 | 0.15 | 1.73 | 1.73 | 100 | 1004.2 |
| 20260507014556 | 5 | 275 | 1.6 | 9.7 | 0.05 | 1.63 | 1.63 | 100 | 1003.9 |
| 20260507013056 | 5 | 256 | 1.6 | 11.3 | 0.03 | 1.57 | 1.57 | 100 | 1004.0 |
| 20260507011556 | 6 | 281 | 8.0 | 16.1 | 0.05 | 1.57 | 1.57 | 100 | 1004.2 |
| 20260507010111 | 6 | 353 | 0.0 | 19.3 | 0.08 | 1.57 | 1.57 | 100 | 1004.2 |
| 20260507004554 | 6 | 281 | 3.2 | 9.7 | 0.10 | 1.57 | 1.57 | 100 | 1004.6 |
| 20260507003056 | 6 | 309 | 0.0 | 6.4 | 0.15 | 1.55 | 1.55 | 100 | 1004.5 |
| 20260507001601 | 6 | 320 | 0.0 | 3.2 | 0.23 | 1.52 | 1.52 | 100 | 1004.5 |
| 20260507000105 | 6 | 350 | 3.2 | 9.7 | 0.30 | 1.47 | 1.47 | 100 | 1004.5 |
| 20260506234616 | 6 | 223 | 1.6 | 14.5 | 0.36 | 1.47 | 1.47 | 100 | 1004.7 |
| 20260506233103 | 6 | 53 | 4.8 | 17.7 | 0.28 | 1.40 | 1.40 | 99 | 1004.7 |
| 20260506231557 | 7 | 281 | 6.4 | 16.1 | 0.18 | 1.30 | 1.30 | 100 | 1004.5 |
| 20260506230058 | 8 | 164 | 3.2 | 20.9 | 0.08 | 1.17 | 1.17 | 100 | 1004.3 |
| 20260506224556 | 8 | 116 | 19.3 | 33.8 | 0.05 | 1.19 | 1.12 | 100 | 1003.7 |
| 20260506223101 | 8 | 210 | 22.5 | 37.0 | 0.05 | 1.19 | 1.12 | 100 | 1003.6 |
| 20260506221613 | 8 | 169 | 12.9 | 22.5 | 0.08 | 1.19 | 1.12 | 100 | 1004.3 |
| 20260506220056 | 8 | 171 | 14.5 | 27.4 | 0.08 | 1.17 | 1.09 | 100 | 1004.5 |
| 20260506214604 | 8 | 140 | 11.3 | 24.1 | 0.05 | 1.47 | 1.07 | 100 | 1004.7 |
| 20260506213058 | 8 | 177 | 11.3 | 25.7 | 0.08 | 1.47 | 1.07 | 100 | 1004.7 |
| 20260506211556 | 8 | 210 | 14.5 | 29.0 | 0.10 | 1.45 | 1.04 | 100 | 1004.7 |
| 20260506210101 | 8 | 135 | 17.7 | 25.7 | 0.10 | 1.42 | 1.02 | 100 | 1004.6 |
| 20260506204608 | 8 | 155 | 14.5 | 25.7 | 0.13 | 1.42 | 1.02 | 100 | 1004.8 |
| 20260506203054 | 8 | 210 | 11.3 | 19.3 | 0.13 | 1.40 | 0.99 | 100 | 1004.9 |
| 20260506201556 | 8 | 184 | 11.3 | 20.9 | 0.13 | 1.32 | 0.94 | 100 | 1004.9 |
| 20260506200056 | 8 | 177 | 12.9 | 24.1 | 0.15 | 1.32 | 0.91 | 100 | 1005.1 |
| 20260506194557 | 8 | 154 | 9.7 | 19.3 | 0.18 | 1.30 | 0.89 | 100 | 1005.2 |
| 20260506193055 | 8 | 210 | 9.7 | 20.9 | 0.18 | 1.27 | 0.86 | 100 | 1005.5 |
| 20260506191553 | 8 | 162 | 12.9 | 29.0 | 0.25 | 1.22 | 0.81 | 100 | 1005.7 |
| 20260506190058 | 8 | 142 | 17.7 | 33.8 | 0.23 | 1.17 | 0.76 | 100 | 1005.8 |
| 20260506184553 | 8 | 144 | 20.9 | 37.0 | 0.25 | 1.12 | 0.71 | 100 | 1005.8 |
| 20260506183100 | 8 | 210 | 12.9 | 27.4 | 0.33 | 1.09 | 0.69 | 100 | 1005.9 |
| 20260506181559 | 7 | 210 | 14.5 | 27.4 | 0.28 | 0.97 | 0.56 | 100 | 1006.2 |
| 20260506180058 | 7 | 126 | 19.3 | 29.0 | 0.25 | 0.94 | 0.53 | 100 | 1005.8 |
| 20260506174600 | 7 | 145 | 17.7 | 25.7 | 0.20 | 0.86 | 0.46 | 100 | 1006.2 |
| 20260506173126 | 7 | 158 | 19.3 | 37.0 | 0.10 | 0.76 | 0.36 | 100 | 1005.9 |
| 20260506171556 | 8 | 134 | 24.1 | 37.0 | 0.05 | 0.69 | 0.28 | 100 | 1006.1 |
| 20260506170053 | 8 | 139 | 24.1 | 41.8 | 0.05 | 0.69 | 0.28 | 100 | 1006.2 |
| 20260506164555 | 7 | 210 | 22.5 | 40.2 | 0.03 | 0.66 | 0.25 | 100 | 1006.5 |
| 20260506163056 | 7 | 139 | 22.5 | 40.2 | 0.03 | 0.66 | 0.25 | 100 | 1006.9 |
| 20260506161605 | 7 | 116 | 30.6 | 54.7 | 0.00 | 0.64 | 0.23 | 100 | 1007.0 |
| 20260506160105 | 8 | 136 | 32.2 | 46.7 | 0.00 | 0.64 | 0.23 | 100 | 1007.1 |
| 20260506154601 | 8 | 127 | 30.6 | 45.1 | 0.00 | 0.64 | 0.23 | 100 | 1007.3 |
| 20260506153055 | 8 | 135 | 29.0 | 43.5 | 0.00 | 0.64 | 0.23 | 100 | 1007.3 |
| 20260506151558 | 8 | 138 | 30.6 | 45.1 | 0.03 | 0.64 | 0.23 | 100 | 1007.3 |
| 20260506144609 | 7 | 123 | 29.0 | 40.2 | 0.05 | 0.64 | 0.23 | 100 | 1007.1 |
| 20260506143057 | 7 | 136 | 25.7 | 40.2 | 0.05 | 0.64 | 0.23 | 100 | 1007.1 |
| 20260506141555 | 7 | 150 | 30.6 | 46.7 | 0.03 | 0.61 | 0.20 | 100 | 1007.5 |
| 20260506140110 | 7 | 127 | 29.0 | 46.7 | 0.00 | 0.58 | 0.18 | 100 | 1007.9 |
| 20260506134554 | 6 | 116 | 30.6 | 46.7 | 0.00 | 0.58 | 0.18 | 100 | 1007.4 |
| 20260506133133 | 6 | 125 | 30.6 | 46.7 | 0.00 | 0.58 | 0.18 | 100 | 1007.2 |
| 20260506131555 | 6 | 210 | 29.0 | 40.2 | 0.00 | 0.58 | 0.18 | 100 | 1007.6 |
| 20260506130137 | 6 | 115 | 32.2 | 43.5 | 0.00 | 0.58 | 0.18 | 99 | 1007.8 |
| 20260506124556 | 6 | 210 | 32.2 | 48.3 | 0.00 | 0.58 | 0.18 | 99 | 1007.9 |
| 20260506123058 | 6 | 141 | 24.1 | 37.0 | 0.00 | 0.58 | 0.18 | 99 | 1008.0 |
| 20260506121600 | 6 | 132 | 24.1 | 38.6 | 0.00 | 0.58 | 0.18 | 98 | 1008.2 |
| 20260506120100 | 6 | 134 | 8.0 | 17.7 | 0.00 | 0.58 | 0.18 | 97 | 1008.5 |
| 20260506114553 | 7 | 132 | 4.8 | 12.9 | 0.00 | 0.58 | 0.18 | 96 | 1008.7 |
| 20260506113056 | 7 | 69 | 4.8 | 19.3 | 0.00 | 0.58 | 0.18 | 96 | 1008.5 |
| 20260506111557 | 7 | 145 | 6.4 | 12.9 | 0.00 | 0.58 | 0.18 | 97 | 1008.5 |
| 20260506110055 | 7 | 140 | 11.3 | 19.3 | 0.00 | 0.58 | 0.18 | 96 | 1008.5 |
| 20260506104605 | 6 | 123 | 6.4 | 16.1 | 0.00 | 0.58 | 0.18 | 97 | 1008.5 |
| 20260506103105 | 6 | 210 | 6.4 | 17.7 | 0.00 | 0.58 | 0.18 | 97 | 1008.7 |
| 20260506101556 | 6 | 117 | 4.8 | 11.3 | 0.00 | 0.58 | 0.18 | 98 | 1008.8 |
| 20260506100109 | 6 | 267 | 6.4 | 14.5 | 0.00 | 0.58 | 0.18 | 98 | 1008.9 |
| 20260506094603 | 6 | 131 | 4.8 | 16.1 | 0.00 | 0.58 | 0.18 | 98 | 1008.9 |
| 20260506093056 | 5 | 247 | 4.8 | 22.5 | 0.00 | 0.58 | 0.18 | 99 | 1008.8 |
| 20260506091557 | 5 | 271 | 8.0 | 17.7 | 0.00 | 0.58 | 0.18 | 99 | 1009.0 |
| 20260506090056 | 5 | 246 | 9.7 | 19.3 | 0.00 | 0.58 | 0.18 | 99 | 1008.5 |
| 20260506084600 | 5 | 264 | 9.7 | 20.9 | 0.00 | 0.58 | 0.18 | 99 | 1008.5 |
| 20260506083059 | 5 | 298 | 6.4 | 22.5 | 0.03 | 0.58 | 0.18 | 99 | 1008.9 |
| 20260506081608 | 5 | 258 | 12.9 | 20.9 | 0.05 | 0.58 | 0.18 | 99 | 1008.8 |
| 20260506073058 | 5 | 279 | 14.5 | 27.4 | 0.05 | 0.56 | 0.15 | 99 | 1009.0 |